Total_Precipitation_Accumulation
0.00 0.00 0.00 0.01 0.01 0.01 0.01 0.01 0.01 0.00 0.00 0.01 0.00 0.00 0.01 0.01 0.02 0.03 0.05 0.05 0.05 0.06 0.05 0.06 0.06 0.05 0.07 0.08 0.09 0.11 0.13 0.16 0.15 0.08 0.05 0.04 0.05 0.05 0.05 0.06 0.06 0.08 0.08
0.00 0.00 0.00 0.00 0.01 0.01 0.01 0.01 0.00 0.00 0.00 0.00 0.00 0.01 0.01 0.01 0.01 0.02 0.03 0.04 0.04 0.05 0.04 0.04 0.05 0.05 0.06 0.08 0.10 0.11 0.12 0.13 0.15 0.13 0.09 0.07 0.07 0.07 0.07 0.09 0.08 0.08 0.07
0.00 0.00 0.00 0.00 0.00 0.01 0.00 0.00 0.00 0.00 0.01 0.01 0.01 0.01 0.01 0.01 0.01 0.01 0.02 0.03 0.04 0.04 0.04 0.05 0.05 0.06 0.08 0.08 0.10 0.12 0.14 0.16 0.18 0.19 0.15 0.11 0.09 0.09 0.10 0.11 0.10 0.09 0.08
0.00 0.00 0.00 0.00 0.00 0.00 0.00 0.00 0.00 0.00 0.00 0.00 0.00 0.00 0.00 0.00 0.01 0.01 0.02 0.03 0.04 0.04 0.05 0.06 0.07 0.09 0.10 0.11 0.13 0.15 0.17 0.21 0.24 0.25 0.21 0.16 0.13 0.12 0.13 0.14 0.13 0.10 0.10
0.00 0.00 0.00 0.00 0.00 0.00 0.00 0.00 0.00 0.00 0.00 0.00 0.00 0.00 0.00 0.00 0.00 0.01 0.01 0.02 0.03 0.04 0.05 0.05 0.06 0.10 0.13 0.14 0.15 0.15 0.18 0.24 0.28 0.30 0.26 0.21 0.16 0.15 0.15 0.14 0.16 0.16 0.17
0.00 0.00 0.00 0.00 0.00 0.00 0.00 0.00 0.00 0.01 0.01 0.01 0.01 0.00 0.01 0.01 0.02 0.02 0.02 0.02 0.03 0.04 0.04 0.05 0.06 0.10 0.12 0.16 0.18 0.19 0.20 0.24 0.30 0.33 0.32 0.27 0.20 0.18 0.20 0.24 0.28 0.32 0.26
0.00 0.00 0.00 0.00 0.00 0.00 0.00 0.00 0.00 0.01 0.01 0.01 0.01 0.01 0.01 0.01 0.03 0.03 0.04 0.03 0.03 0.04 0.04 0.05 0.06 0.07 0.11 0.12 0.16 0.21 0.22 0.23 0.28 0.33 0.37 0.30 0.27 0.27 0.34 0.40 0.38 0.37 0.29
0.00 0.00 0.00 0.00 0.00 0.00 0.00 0.00 0.00 0.01 0.01 0.01 0.01 0.01 0.02 0.02 0.04 0.05 0.06 0.06 0.06 0.06 0.06 0.06 0.08 0.09 0.12 0.16 0.20 0.24 0.24 0.24 0.28 0.32 0.33 0.30 0.30 0.34 0.43 0.52 0.54 0.55 0.42
0.00 0.00 0.00 0.00 0.00 0.00 0.00 0.00 0.01 0.01 0.01 0.01 0.02 0.02 0.03 0.04 0.07 0.08 0.09 0.10 0.10 0.09 0.09 0.11 0.13 0.14 0.18 0.28 0.35 0.34 0.31 0.28 0.31 0.37 0.38 0.39 0.41 0.45 0.50 0.66 0.71 0.69 0.53
0.00 0.00 0.00 0.00 0.00 0.00 0.00 0.01 0.01 0.02 0.03 0.03 0.04 0.05 0.06 0.07 0.11 0.14 0.14 0.15 0.15 0.14 0.15 0.17 0.19 0.22 0.28 0.39 0.47 0.48 0.45 0.33 0.37 0.45 0.45 0.44 0.42 0.42 0.45 0.53 0.61 0.77 0.69
0.00 0.00 0.00 0.00 0.00 0.01 0.01 0.02 0.03 0.04 0.06 0.08 0.10 0.11 0.12 0.14 0.19 0.22 0.22 0.23 0.22 0.24 0.26 0.25 0.24 0.30 0.39 0.48 0.57 0.56 0.45 0.48 0.63 0.63 0.58 0.54 0.51 0.51 0.52 0.53 0.55 0.66 0.75
0.01 0.01 0.01 0.01 0.01 0.02 0.03 0.05 0.07 0.09 0.13 0.16 0.18 0.20 0.22 0.24 0.27 0.28 0.30 0.30 0.30 0.38 0.34 0.28 0.28 0.37 0.48 0.56 0.62 0.55 0.53 0.70 0.82 0.75 0.66 0.58 0.53 0.51 0.50 0.52 0.53 0.53 0.53
0.02 0.03 0.03 0.04 0.05 0.06 0.08 0.11 0.14 0.17 0.21 0.23 0.25 0.27 0.28 0.30 0.33 0.35 0.37 0.39 0.39 0.42 0.35 0.32 0.38 0.46 0.56 0.61 0.58 0.58 0.71 0.83 0.81 0.72 0.58 0.45 0.40 0.43 0.49 0.56 0.59 0.57 0.54
0.05 0.06 0.07 0.09 0.11 0.13 0.15 0.18 0.21 0.25 0.29 0.32 0.34 0.34 0.34 0.34 0.34 0.38 0.45 0.54 0.58 0.56 0.49 0.47 0.51 0.58 0.67 0.67 0.64 0.69 0.76 0.73 0.67 0.61 0.50 0.45 0.45 0.51 0.56 0.58 0.63 0.64 0.66
0.07 0.07 0.09 0.11 0.14 0.18 0.20 0.22 0.24 0.27 0.31 0.43 0.48 0.50 0.51 0.46 0.37 0.47 0.63 0.73 0.73 0.69 0.72 0.77 0.73 0.70 0.74 0.72 0.69 0.69 0.68 0.69 0.67 0.62 0.62 0.62 0.58 0.55 0.54 0.54 0.57 0.61 0.63
0.10 0.09 0.10 0.12 0.14 0.16 0.19 0.23 0.27 0.29 0.33 0.43 0.48 0.54 0.53 0.48 0.52 0.67 0.72 0.74 0.73 0.73 0.90 0.85 0.65 0.56 0.53 0.51 0.54 0.56 0.56 0.58 0.57 0.60 0.65 0.62 0.58 0.55 0.55 0.55 0.56 0.56 0.55
0.13 0.14 0.14 0.15 0.17 0.18 0.19 0.21 0.24 0.28 0.30 0.33 0.37 0.41 0.45 0.48 0.56 0.64 0.74 0.83 0.83 0.81 0.88 0.65 0.51 0.49 0.49 0.49 0.51 0.51 0.50 0.49 0.54 0.60 0.63 0.60 0.58 0.57 0.55 0.53 0.52 0.53 0.52
0.13 0.15 0.16 0.17 0.17 0.18 0.19 0.20 0.22 0.25 0.28 0.29 0.30 0.33 0.38 0.44 0.52 0.62 0.74 0.96 0.97 0.76 0.58 0.44 0.45 0.48 0.50 0.51 0.51 0.50 0.50 0.50 0.52 0.55 0.55 0.53 0.53 0.55 0.53 0.48 0.45 0.45 0.46
0.14 0.15 0.16 0.17 0.18 0.19 0.20 0.22 0.23 0.25 0.26 0.27 0.29 0.32 0.34 0.40 0.48 0.57 0.69 0.81 0.64 0.49 0.39 0.39 0.46 0.53 0.54 0.52 0.50 0.48 0.47 0.45 0.43 0.46 0.48 0.47 0.48 0.51 0.49 0.42 0.41 0.41 0.44
0.16 0.16 0.18 0.21 0.22 0.22 0.22 0.24 0.26 0.27 0.28 0.28 0.27 0.28 0.36 0.46 0.50 0.48 0.52 0.51 0.49 0.44 0.39 0.41 0.49 0.53 0.53 0.51 0.48 0.45 0.45 0.43 0.41 0.42 0.41 0.41 0.43 0.45 0.45 0.41 0.41 0.42 0.41
0.22 0.22 0.23 0.26 0.27 0.27 0.27 0.29 0.30 0.32 0.31 0.30 0.28 0.30 0.44 0.48 0.36 0.34 0.41 0.46 0.48 0.45 0.41 0.41 0.45 0.48 0.47 0.45 0.43 0.41 0.40 0.38 0.36 0.36 0.36 0.35 0.36 0.38 0.37 0.38 0.40 0.40 0.41
0.26 0.26 0.28 0.31 0.33 0.35 0.36 0.36 0.37 0.37 0.35 0.34 0.33 0.37 0.46 0.43 0.36 0.35 0.37 0.41 0.42 0.42 0.41 0.40 0.41 0.43 0.43 0.42 0.40 0.38 0.35 0.32 0.31 0.31 0.32 0.31 0.32 0.32 0.32 0.34 0.35 0.36 0.36
0.27 0.28 0.30 0.32 0.35 0.37 0.38 0.38 0.38 0.37 0.36 0.35 0.35 0.38 0.38 0.33 0.30 0.30 0.31 0.34 0.36 0.38 0.39 0.39 0.37 0.36 0.36 0.34 0.33 0.31 0.29 0.28 0.28 0.29 0.30 0.28 0.27 0.26 0.28 0.29 0.30 0.31 0.30
0.26 0.27 0.27 0.29 0.31 0.32 0.33 0.33 0.34 0.34 0.34 0.34 0.33 0.30 0.28 0.29 0.30 0.31 0.32 0.33 0.33 0.31 0.30 0.29 0.28 0.26 0.24 0.22 0.22 0.22 0.23 0.25 0.27 0.27 0.25 0.24 0.22 0.22 0.23 0.25 0.27 0.29 0.30
0.25 0.25 0.25 0.25 0.27 0.28 0.29 0.29 0.30 0.31 0.31 0.30 0.28 0.28 0.29 0.30 0.30 0.29 0.28 0.27 0.25 0.23 0.21 0.20 0.19 0.18 0.17 0.16 0.15 0.16 0.17 0.19 0.20 0.21 0.20 0.20 0.19 0.18 0.19 0.22 0.25 0.27 0.29
0.22 0.22 0.23 0.23 0.24 0.24 0.25 0.25 0.25 0.25 0.25 0.25 0.26 0.26 0.27 0.27 0.25 0.24 0.22 0.21 0.19 0.17 0.16 0.15 0.14 0.14 0.13 0.13 0.14 0.14 0.15 0.18 0.20 0.18 0.17 0.17 0.15 0.15 0.15 0.17 0.19 0.22 0.25